This is the latest recevied weather packets stored in our database for station/object K8RRT. If no packets are shown the sender has not sent any weather packets the latest 10 day(s).
| Time | Temp. | Humidity | Pressure | Rain* | Wind** | Luminosity | Snow |
|---|---|---|---|---|---|---|---|
| 1787936386 | 27.78° C | 74% | 1015.1 hPa | 0 mm | - | 472 W/m² | - |
| 1787936081 | 27.22° C | 76% | 1015.2 hPa | 0 mm | - | 828 W/m² | - |
| 1787935777 | 26.67° C | 78% | 1015.4 hPa | 0 mm | - | 242 W/m² | - |
| 1787935473 | 26.67° C | 77% | 1015.2 hPa | 0 mm | - | 158 W/m² | - |
| 1787935169 | 27.22° C | 77% | 1015.4 hPa | 0 mm | - | 794 W/m² | - |
| 1787934864 | 27.78° C | 76% | 1015.4 hPa | 0 mm | - | 169 W/m² | - |
| 1787934563 | 27.78° C | 77% | 1015.1 hPa | 0 mm | - | 766 W/m² | - |
| 1787934258 | 27.78° C | 76% | 1015.2 hPa | 0 mm | - | 861 W/m² | - |
| 1787933957 | 27.22° C | 78% | 1015.5 hPa | 0 mm | - | 839 W/m² | - |
| 1787933657 | 27.22° C | 78% | 1015.2 hPa | 0 mm | - | 441 W/m² | - |
| 1787933352 | 26.11° C | 83% | 1015.5 hPa | 0 mm | - | 791 W/m² | - |
| 1787933052 | 25.56° C | 84% | 1015.4 hPa | 0 mm | - | 234 W/m² | - |
| 1787932750 | 26.11° C | 83% | 1015.2 hPa | 0 mm | - | 222 W/m² | - |
| 1787932450 | 26.11° C | 83% | 1015.4 hPa | 0 mm | - | 232 W/m² | - |
| 1787932146 | 26.11° C | 82% | 1015.4 hPa | 0 mm | - | 818 W/m² | - |
| 1787931844 | 26.67° C | 83% | 1015.1 hPa | 0 mm | - | 722 W/m² | - |
| 1787931544 | 26.67° C | 83% | 1015.2 hPa | 0 mm | - | 879 W/m² | - |
| 1787931238 | 27.22° C | 80% | 1015.4 hPa | 0 mm | - | 840 W/m² | - |
| 1787930637 | 26.11° C | 83% | 1015.5 hPa | 0 mm | - | 792 W/m² | - |
| 1787930332 | 25.56° C | 84% | 1015 hPa | 0 mm | - | 798 W/m² | - |
| 1787930027 | 26.11° C | 85% | 1015.2 hPa | 0 mm | - | 741 W/m² | - |
| 1787929725 | 25.56° C | 85% | 1015 hPa | 0 mm | - | 620 W/m² | - |
| 1787929421 | 25.56° C | 84% | 1015.4 hPa | 0 mm | - | 596 W/m² | - |
| 1787929118 | 25° C | 87% | 1015 hPa | 0 mm | - | 719 W/m² | - |
| 1787928814 | 24.44° C | 87% | 1015.2 hPa | 0 mm | - | 688 W/m² | - |
* Rain latest hour (hover to see other rain measurements)
** Current wind speed in m/s (hover to see current wind gust speed)